Zurück zum Katalog

KHALIFASAT

AktivWissenschaftSSO
NORAD 43676·PAYLOAD·🇦🇪 UAE

Gestartet Oct 29, 2018 von Tanegashima Space Center

Loading…

Nächste Überflüge (nächste 24 Stunden)

TLE

AktuellSource: Space-Track

Epoche: Sep 14, 2026, 23:09 UTC

1 43676U 18084F   26257.96460294  .00000387  00000-0  34977-4 0  9991
2 43676  98.0836  84.0330 0005431 172.1326 187.9983 15.01554542429243

Verfolge KHALIFASAT in Echtzeit mit AllMySat

Download on the App Store